• Join FlightAware (Why Join?)
  • Login
  • US Flag 
02:11AM EDT


 

Airport Tracker/Info


-or-


 

Live Flight TrackerFlight Track Log ✈ TAP1602 ✈ 05-Aug-2012 ✈ LPMA / FNC - LPPT / LIS

Flight Track Log - Related Links

Times and Time Zones

All times are in EDT time to prevent confusion due to time zone crossing. See the TAP1602 flight status page for this flight to view local times or setup timezone preferences in your user account.

Time Position Orientation Groundspeed Altitude Reporting Facility
EDT Latitude Longitude Course Direction KTS MPH feet Rate Location/Type
12:49AM 32.7090 -16.7560 77° East 153 176 900  Level FlightAware
12:50AM 32.7130 -16.7350 82° East 177 204 1,600 1,620 Climbing FlightAware
12:50AM 32.7150 -16.7170 78° East 199 229 2,000 1,560 Climbing FlightAware
12:50AM 32.7210 -16.6830 50° Northeast 224 258 2,800 1,860 Climbing FlightAware
12:51AM 32.7280 -16.6730 45° Northeast 220 253 3,400 2,400 Climbing FlightAware
12:51AM 32.7510 -16.6460 42° Northeast 254 292 4,400 1,800 Climbing FlightAware
12:51AM 32.7800 -16.6150 43° Northeast 299 344 5,100 2,160 Climbing FlightAware
12:52AM 32.8070 -16.5850 43° Northeast 308 354 6,400 2,820 Climbing FlightAware
12:52AM 32.8390 -16.5490 43° Northeast 322 371 7,700 2,520 Climbing FlightAware
12:53AM 32.8550 -16.5310 42° Northeast 331 381 8,300 2,400 Climbing FlightAware
12:53AM 32.8830 -16.5010 44° Northeast 340 391 9,300 2,460 Climbing FlightAware
12:54AM 32.9360 -16.4410 43° Northeast 355 409 11,200 2,460 Climbing FlightAware
12:54AM 32.9850 -16.3870 43° Northeast 368 423 12,800 2,520 Climbing FlightAware
12:55AM 33.0430 -16.3220 43° Northeast 379 436 14,800 2,700 Climbing FlightAware
12:56AM 33.0940 -16.2650 44° Northeast 377 434 16,700 2,400 Climbing FlightAware
12:57AM 33.1460 -16.2060 43° Northeast 393 452 18,000 1,860 Climbing FlightAware
12:57AM 33.2060 -16.1390 43° Northeast 406 467 19,400 1,800 Climbing FlightAware
12:58AM 33.2620 -16.0760 44° Northeast 413 475 20,600 1,740 Climbing FlightAware
12:59AM 33.3250 -16.0040 43° Northeast 425 489 21,900 1,740 Climbing FlightAware
12:59AM 33.3830 -15.9390 43° Northeast 430 495 23,100 1,560 Climbing FlightAware
01:00AM 33.4420 -15.8720 44° Northeast 442 509 24,000 1,320 Climbing FlightAware
01:01AM 33.5090 -15.7950 44° Northeast 453 521 25,000  Climbing FlightAware
01:44AM 37.8470 -10.4450 52° Northeast 507 583 25,600 -120 Climbing FlightAware
01:47AM 38.0210 -10.1660 52° Northeast 448 516 21,400 -2,100 Descending FlightAware
01:47AM 38.0740 -10.0800 52° Northeast 440 506 19,900 -2,220 Descending FlightAware
01:48AM 38.1280 -9.9930 52° Northeast 423 487 18,300 -2,340 Descending FlightAware
01:49AM 38.1770 -9.9130 52° Northeast 425 489 16,600 -2,520 Descending FlightAware
01:51AM 38.3410 -9.6440 52° Northeast 392 451 10,900 -2,520 Descending FlightAware
01:51AM 38.3750 -9.5890 53° Northeast 387 445 9,600 -1,860 Descending FlightAware
01:52AM 38.4000 -9.5470 52° Northeast 364 419 9,200 -1,080 Descending FlightAware
01:52AM 38.4230 -9.5090 52° Northeast 343 395 8,800 -1,620 Descending FlightAware
01:53AM 38.4470 -9.4700 52° Northeast 335 386 8,000 -2,220 Descending FlightAware
01:53AM 38.4760 -9.4220 52° Northeast 338 389 6,800 -2,400 Descending FlightAware
01:54AM 38.5000 -9.3830 53° Northeast 335 386 5,800 -1,860 Descending FlightAware
01:54AM 38.5250 -9.3410 52° Northeast 323 372 5,100 -1,140 Descending FlightAware
01:55AM 38.5540 -9.2930 52° Northeast 296 341 4,700 -900 Descending FlightAware
01:55AM 38.5750 -9.2590 42° Northeast 277 319 4,300 -900 Descending FlightAware
01:55AM 38.5890 -9.2430 28° Northeast 265 305 4,100 -1,200 Descending FlightAware
01:56AM 38.6150 -9.2250 23° Northeast 253 291 3,500 -1,320 Descending FlightAware
01:56AM 38.6450 -9.2090 23° Northeast 231 266 2,900 -1,320 Descending FlightAware
01:57AM 38.6720 -9.1940 22° Northeast 183 211 2,200 -1,440 Descending FlightAware
02:05AM 39.5249 -8.7356 203° Southwest  Level Estimated
02:06AM 39.4168 -8.7944 203° Southwest  Level Estimated
02:07AM 39.3087 -8.8530 203° Southwest  Level Estimated
02:08AM 39.2006 -8.9114 203° Southwest  Level Estimated
02:09AM 39.0924 -8.9696 203° Southwest  Level Estimated
02:10AM 38.9842 -9.0276 203° Southwest  Level Estimated
02:11AM 38.8759 -9.0855 203° Southwest  Level Estimated
02:12AM 38.7677 -9.1432 23° Northeast  Level Estimated
02:13AM 38.8759 -9.0855 203° Southwest  Level Estimated
02:14AM 38.7677 -9.1432 23° Northeast  Level Estimated
02:15AM 38.8759 -9.0855 203° Southwest  Level Estimated
02:16AM 38.7677 -9.1432 23° Northeast  Level Estimated
02:17AM 38.8759 -9.0855 203° Southwest  Level Estimated
02:18AM 38.7677 -9.1432 23° Northeast  Level Estimated
02:19AM 38.8759 -9.0855 23° Northeast  Level Estimated